Pagina principale
METAR-TAF:

METAR-TAF

Aeroporti :

Wasilla, Alaska, Stati Uniti

latitudine: 61-34-19N, longitudine: 149-32-26W, altezza: 106 m

Osservazione

Il bollettino è stato emesso 36 minuti fa, alle 05:56 UTC
Vento 5 kt da sud/sud-ovest
Temperature 11°C
Umidità 66%
Pressione 1003 hPa
Visibilità: 16.1 km
Cielo coperto ad un'altezza di 8000 ft

METAR: PAWS 230556Z AUTO 20005KT 10SM OVC080 11/05 A2963 RMK AO2 SLP050 T01110050 10139 20100 53005

Ora: 22:32 (06:32 UTC)


TAF: mancante

Osservazioni e previsioni meteorologiche di più di 4000 aeroporti (messaggi METAR e TAF).

Le stazioni disponibili sono rappresentate dai dischi gialli e rossi sulla carta.

Puntare il mouse per vedere il nome della stazione.

Clicca sopra per visualizzare le osservazioni e previsioni meteorologiche.

Per cambiare la mappa : fare clic sui pulsanti verdi con una croce nera per ingrandire, il pulsante verde con un trattino per diminuire, o sulla freccia verde per le mappe adiacenti.


METAR-TAF: